2010 XN
ephemeris date magn radius delta ra dec elong phase
Today16 Oct 202527.01.226 AU1.416 AU17h18m-23°45'58.0°43.6°
2010 XN - 2025-10-16
astro.vanbuitenen.nl


 
-1 year
-1 month
-1 day
Now
+1 day
+1 month
+1 year

The interactive orbit chart above shows the body's path through the solar system and its position at the given date. Green and blue lines are shown perpendicular to the ecliptic plane: Green if the path is above the ecliptic plane, blue if it is below. (Left-click and drag to rotate the view; Right-click and drag to move the view; Use scroll wheel to zoom in our out.)

The orbital elements of 2010 XN are:

            e (Eccentricity)                : 0.3465169
            a (Semimajor axis)              : 1.1273893
            i (Inclination)                 : 1.08045
            Ω (Longitude of ascending node) : 78.85313
            ω (Argument of perihelion)      : 101.87990
            M (Mean anomaly)                : 310.30873
            Epoch                           : 2025 May 05

            L (Longitude of perihelion)     : 0.73508
            B (Latitude of perihelion)      : 1.05731
            P (Orbital period in years)     : 1.20            
        

The light curve chart below shows the estimated development of the minor planet's magnitude.


The all-sky chart below shows the path of the minor planet over the same period as the light curve. The current position is marked yellow.





The following chart shows the path of the minor planet in the next few days. The field of view is optimized for (~10x50) binoculars and finderscopes. A more printer-friendly version of the same chart can be found below.




Ephemerides:
Date       Time       RA (2000)    DEC (2000)    delta   radius  elong  phase   PA    magn
2025-10-16 00:00 UT   17 18 23.0   -23 45 32     1.416    1.226   58.0   43.6    95   27.0 
2025-10-16 12:01 UT   17 20 24.4   -23 47 40     1.421    1.228   57.9   43.5    94   27.1 
2025-10-17 00:00 UT   17 22 25.0   -23 49 42     1.425    1.231   57.9   43.3    94   27.1 
2025-10-18 00:00 UT   17 26 25.7   -23 53 27     1.434    1.236   57.8   43.1    94   27.1 
2025-10-19 00:00 UT   17 30 25.0   -23 56 47     1.442    1.240   57.7   42.8    93   27.1 
2025-10-20 00:00 UT   17 34 22.9   -23 59 43     1.451    1.245   57.7   42.5    93   27.1 
2025-10-21 00:00 UT   17 38 19.4   -24 02 15     1.460    1.250   57.6   42.2    93   27.1 
2025-10-22 00:00 UT   17 42 14.5   -24 04 24     1.468    1.255   57.5   42.0    92   27.1 
2025-10-23 00:00 UT   17 46 08.2   -24 06 09     1.477    1.260   57.4   41.7    92   27.1 
2025-10-24 00:00 UT   17 50 00.5   -24 07 32     1.486    1.264   57.2   41.4    91   27.2 
2025-10-25 00:00 UT   17 53 51.5   -24 08 33     1.495    1.269   57.1   41.2    91   27.2 


    Terminology:
            
    delta:  distance between minor planet and earth in AU
    radius: distance between minor planet and sun in AU
    magn:   magnitude (brightness) estimate    
    ra:     right ascension in hours (24h = 360deg)
    dec:    declination in degrees
    elong:  elongation in degrees (angle sun-earth-minor planet)    
    phase:  phase angle in degrees (angle sun-minor planet-earth)        
    AU:     Astronomical Unit (mean distance between earth and sun: 149597870.7 km
    

Orbital elements provided by the MPC (Minor Planet Center).
Calculations by a modified version of AAPlus, a C# implementation of the AA+ project by PJ Naughter from the algorithms presented in the book "Astronomical Algorithms" by Jean Meeus.
NGC2000 dso catalog and star labels from VizieR as provided by the Strasbourg astronomical Data Center.
Tycho2 catalog from the ESO archive.